Location: Newark
(26.8167°N, 79.5167°E)
Time: 16:35:58
(UTC+00:00)

X-37B - Visible Passes

Search period start: 01 October 2020 00:00
Search period end: 11 October 2020 00:00
Orbit: 386 x 387 km, 45.0° (Epoch: 18 September)

Date Brightness Start Highest point End Pass type
(mag) Time Alt. Az. Time Alt. Az. Time Alt. Az.
01 Oct 2.5 13:53:32 10° W 13:56:14 25° NNW 13:57:13 22° N visible
02 Oct 1.2 12:54:29 10° WSW 12:57:36 57° NW 13:00:44 10° NE visible
03 Oct 3.4 13:34:05 10° WNW 13:35:51 14° NNW 13:37:38 10° N visible
